User: anonymous   Login
Location: ????????
(60.4333°N, 46.4710°E)
Time: 02:00:45
(UTC+00:00)
Language:

DNEPR-1 R/B - Orbit

View from above orbital plane
View from above orbital plane
View from above satellite
View from above satellite

Ground track
Ground track

The orbit data is extracted from the following two-line orbital elements,

1 26550U 00057F   21058.27480662 -.00000094  00000-0  70408-5 0  9999
2 26550  64.5648  19.6718 0515608 139.8488 224.1886 13.80804048 29289
Epoch (UTC): 27 February 2021 06:35:43
Eccentricity: 0.0515608
inclination: 64.5648°
perigee height: 582 km
apogee height: 1339 km
right ascension of ascending node: 19.6718°
argument of perigee: 139.8488°
revolutions per day: 13.80804048
mean anomaly at epoch: 224.1886°
orbit number at epoch: 2928

The dashed part of the orbit path shows where the satellite is in the earth's shadow,  

DLR